Grand Rapids, MI

4:08 AM EDT on July 21, 2017 (GMT -0400)
Gerald R. Ford International

Weather History for KGRR - October, 2013

Change the Weather History Date:

Wednesday, October 9, 2013

  Actual Average Record
Temperature  
Mean Temperature 59 °F 53 °F  
Max Temperature 71 °F 63 °F 84 °F (1939)
Min Temperature 46 °F 44 °F 23 °F (1989)
Degree Days  
Heating Degree Days 6 12  
Month to date heating degree days 31 96  
Since 1 July heating degree days 169 248  
Cooling Degree Days 0 0  
Month to date cooling degree days 14 4  
Year to date cooling degree days 767 696  
Growing Degree Days 8 (Base 50)    
Moisture  
Dew Point 45 °F    
Average Humidity 65    
Maximum Humidity 93    
Minimum Humidity 37    
Precipitation  
Precipitation 0.00 in 0.11 in 2.54 in (1958)
Month to date precipitation 2.15 0.99  
Year to date precipitation 35.72 29.99  
Snow  
Snow 0.00 in 0.00 in T in (1945)
Month to date snowfall 0.0 0.0  
Since 1 July snowfall 0.0 0.0  
Since 1 September snowfall 0.0 0.0  
Snow Depth 0.00 in    
Sea Level Pressure  
Sea Level Pressure 30.25 in    
Wind  
Wind Speed 5 mph (SE)    
Max Wind Speed 12 mph    
Max Gust Speed 16 mph    
Visibility 10 miles    
Events      
T = Trace of Precipitation, MM = Missing Value Source: NWS Daily Summary

Daily Weather History Graph

Daily Weather History Graph

Search for Another Location

Airport or City:

Trip Planner

Search our weather history database for the weather conditions in past years. The results will help you decide how hot, cold, wet, or windy it might be!

Date:

Astronomy

Oct. 09, 2013 Rise Set
Actual Time 7:48 AM EDT 7:09 PM EDT
Civil Twilight 7:20 AM EDT 7:37 PM EDT
Nautical Twilight 6:47 AM EDT 8:10 PM EDT
Astronomical Twilight 6:14 AM EDT 8:42 PM EDT
Moon 12:49 PM EDT (10/9) 10:37 PM EDT (10/9)
Length of Visible Light 12h 17m
Length of Day
11h 20m
Waxing Crescent, 25% of the Moon is Illuminated
Oct 9
Waxing Crescent
Oct 11
First Quarter
Oct 18
Full
Oct 26
Last Quarter
Nov 3
New

Hourly Weather History & Observations

Time (EDT) Temp. Dew Point Humidity Pressure Visibility Wind Dir Wind Speed Gust Speed Precip Events Conditions
12:53 AM 53.1 °F 45.0 °F 74% 30.23 in 10.0 mi SE 5.8 mph - N/A   Clear
1:53 AM 52.0 °F 44.1 °F 74% 30.24 in 10.0 mi SSE 4.6 mph - N/A   Clear
2:53 AM 51.1 °F 43.0 °F 74% 30.24 in 10.0 mi SE 6.9 mph - N/A   Clear
3:53 AM 48.9 °F 43.0 °F 80% 30.25 in 10.0 mi ESE 3.5 mph - N/A   Clear
4:53 AM 48.9 °F 44.1 °F 83% 30.25 in - SE 5.8 mph - N/A   Clear
5:53 AM 48.0 °F 43.0 °F 83% 30.27 in 10.0 mi Calm Calm - N/A   Clear
6:53 AM 46.9 °F 44.1 °F 90% 30.29 in 10.0 mi Calm Calm - N/A   Clear
7:53 AM 46.0 °F 43.0 °F 89% 30.30 in 10.0 mi Calm Calm - N/A   Partly Cloudy
8:53 AM 48.9 °F 45.0 °F 86% 30.31 in 8.0 mi Calm Calm - N/A   Clear
9:53 AM 55.0 °F 48.0 °F 77% 30.32 in 10.0 mi SE 3.5 mph - N/A   Clear
10:53 AM 62.8 °F 45.3 °F 53% 30.31 in 10.0 mi SE 3.5 mph - N/A   Clear
11:53 AM 63.9 °F 46.6 °F 53% 30.30 in 10.0 mi South 5.8 mph - N/A   Clear
12:54 PM 66.4 °F 46.0 °F 48% 30.30 in 10.0 mi South 10.4 mph - N/A   Clear
1:53 PM 68.0 °F 46.0 °F 45% 30.27 in 10.0 mi SE 8.1 mph - N/A   Partly Cloudy
2:53 PM 70.0 °F 46.0 °F 42% 30.25 in 10.0 mi South 4.6 mph - N/A   Partly Cloudy
3:53 PM 71.1 °F 45.0 °F 39% 30.24 in 10.0 mi SSE 10.4 mph 16.1 mph N/A   Partly Cloudy
4:53 PM 71.1 °F 44.1 °F 38% 30.22 in 10.0 mi SSE 8.1 mph - N/A   Partly Cloudy
5:53 PM 70.0 °F 43.0 °F 38% 30.22 in 10.0 mi SE 9.2 mph - N/A   Partly Cloudy
6:53 PM 66.0 °F 45.0 °F 47% 30.20 in 10.0 mi SE 4.6 mph - N/A   Partly Cloudy
7:53 PM 60.1 °F 45.0 °F 57% 30.21 in 10.0 mi ESE 5.8 mph - N/A   Partly Cloudy
8:53 PM 55.9 °F 44.1 °F 64% 30.22 in 10.0 mi Calm Calm - N/A   Clear
9:53 PM 55.0 °F 44.1 °F 67% 30.22 in 10.0 mi ESE 3.5 mph - N/A   Clear
10:53 PM 54.0 °F 43.0 °F 66% 30.22 in 10.0 mi SE 5.8 mph - N/A   Clear
11:53 PM 52.0 °F 43.0 °F 71% 30.22 in 10.0 mi East 3.5 mph - N/A   Clear